User: anonymous   Login
Location: Balcones
(3.7244°N, 75.6017°W)
Time: 18:40:03
(UTC+00:00)
Language:

Spot 4 Rocket - Orbit

View from above orbital plane
View from above orbital plane
View from above satellite
View from above satellite

Ground track
Ground track

The orbit is defined by the following mean orbital elements,

1 25261U          26040.04448752 +.00000000 +00000-0 +15554-3 0 00008
2 25261  98.8295  67.9385 0004197 133.0535 227.1002 14.36241015    09
Epoch (UTC): 09 February 2026 01:04:03
Eccentricity: 0.0004197
inclination: 98.8295°
perigee height: 768 km
apogee height: 774 km
right ascension of ascending node: 67.9385°
argument of perigee: 133.0535°
revolutions per day: 14.36241015
mean anomaly at epoch: 227.1002°

The dashed part of the orbit path shows where the satellite is in the earth's shadow,  

DLR